| time (UTC) | temp C | wind direction | speed KPH | gust KPH | rain 1hr cm | rain 24hr cm | rain mn cm | humidity % | barometer mb |
| 20260906030036 | 31 | 309 | 4.8 | 9.7 | 0.00 | 0.00 | 0.00 | 36 | 1004.1 |
| 20260906024539 | 31 | 333 | 3.2 | 9.7 | 0.00 | 0.00 | 0.00 | 36 | 1003.9 |
| 20260906023034 | 31 | 315 | 0.0 | 4.8 | 0.00 | 0.00 | 0.00 | 37 | 1003.9 |
| 20260906021540 | 31 | 302 | 0.0 | 4.8 | 0.00 | 0.00 | 0.00 | 36 | 1003.6 |
| 20260906020033 | 32 | 306 | 1.6 | 4.8 | 0.00 | 0.00 | 0.00 | 36 | 1003.6 |
| 20260906014533 | 32 | 319 | 0.0 | 8.0 | 0.00 | 0.00 | 0.00 | 35 | 1003.6 |
| 20260906013032 | 32 | 329 | 1.6 | 9.7 | 0.00 | 0.00 | 0.00 | 34 | 1003.5 |
| 20260906011532 | 33 | 325 | 3.2 | 12.9 | 0.00 | 0.00 | 0.00 | 34 | 1003.5 |
| 20260906010034 | 33 | 319 | 4.8 | 12.9 | 0.00 | 0.00 | 0.00 | 33 | 1003.5 |
| 20260906004531 | 34 | 316 | 6.4 | 16.1 | 0.00 | 0.00 | 0.00 | 33 | 1003.4 |
| 20260906003030 | 35 | 314 | 11.3 | 16.1 | 0.00 | 0.00 | 0.00 | 31 | 1003.4 |
| 20260906001545 | 35 | 335 | 6.4 | 19.3 | 0.00 | 0.00 | 0.00 | 31 | 1003.4 |
| 20260906000029 | 35 | 311 | 8.0 | 20.9 | 0.00 | 0.00 | 0.00 | 31 | 1003.3 |
| 20260905234529 | 35 | 327 | 6.4 | 17.7 | 0.00 | 0.00 | 0.00 | 31 | 1003.2 |
| 20260905233028 | 35 | 338 | 9.7 | 19.3 | 0.00 | 0.00 | 0.00 | 31 | 1003.2 |
| 20260905231528 | 35 | 303 | 9.7 | 27.4 | 0.00 | 0.00 | 0.00 | 31 | 1003.3 |
| 20260905230033 | 35 | 252 | 8.0 | 22.5 | 0.00 | 0.00 | 0.00 | 31 | 1003.4 |
| 20260905224525 | 35 | 311 | 11.3 | 22.5 | 0.00 | 0.00 | 0.00 | 30 | 1003.5 |
| 20260905223039 | 35 | 270 | 8.0 | 20.9 | 0.00 | 0.00 | 0.00 | 32 | 1003.6 |
| 20260905221523 | 35 | 290 | 3.2 | 14.5 | 0.00 | 0.00 | 0.00 | 32 | 1003.8 |
| 20260905220019 | 35 | 228 | 4.8 | 17.7 | 0.00 | 0.00 | 0.00 | 31 | 1003.9 |
| 20260905214517 | 35 | 326 | 6.4 | 12.9 | 0.00 | 0.00 | 0.00 | 32 | 1004.2 |
| 20260905213015 | 35 | 318 | 8.0 | 20.9 | 0.00 | 0.00 | 0.00 | 32 | 1004.5 |
| 20260905211514 | 35 | 319 | 3.2 | 16.1 | 0.00 | 0.00 | 0.00 | 32 | 1004.6 |
| 20260905210011 | 35 | 323 | 4.8 | 12.9 | 0.00 | 0.00 | 0.00 | 33 | 1004.9 |
| 20260905204508 | 35 | 278 | 4.8 | 12.9 | 0.00 | 0.00 | 0.00 | 34 | 1005.1 |
| 20260905203006 | 35 | 318 | 8.0 | 16.1 | 0.00 | 0.00 | 0.00 | 33 | 1005.3 |
| 20260905201504 | 35 | 304 | 4.8 | 17.7 | 0.00 | 0.00 | 0.00 | 33 | 1005.5 |
| 20260905200002 | 34 | 321 | 1.6 | 16.1 | 0.00 | 0.00 | 0.00 | 35 | 1005.7 |
| 20260905194600 | 33 | 303 | 6.4 | 11.3 | 0.00 | 0.00 | 0.00 | 35 | 1006.0 |
| 20260905193057 | 34 | 288 | 4.8 | 9.7 | 0.00 | 0.00 | 0.00 | 36 | 1006.2 |
| 20260905191555 | 33 | 263 | 4.8 | 12.9 | 0.00 | 0.00 | 0.00 | 36 | 1006.4 |
| 20260905190053 | 33 | 266 | 1.6 | 16.1 | 0.00 | 0.00 | 0.00 | 37 | 1006.7 |
| 20260905184557 | 33 | 285 | 1.6 | 9.7 | 0.00 | 0.00 | 0.00 | 38 | 1006.9 |
| 20260905183048 | 32 | 331 | 3.2 | 9.7 | 0.00 | 0.00 | 0.00 | 39 | 1007.1 |
| 20260905181548 | 32 | 321 | 4.8 | 11.3 | 0.00 | 0.00 | 0.00 | 39 | 1007.3 |
| 20260905180044 | 31 | 285 | 1.6 | 8.0 | 0.00 | 0.00 | 0.00 | 40 | 1007.4 |
| 20260905174543 | 31 | 348 | 4.8 | 11.3 | 0.00 | 0.00 | 0.00 | 39 | 1007.4 |
| 20260905173141 | 31 | 352 | 3.2 | 9.7 | 0.00 | 0.00 | 0.00 | 41 | 1007.6 |
| 20260905171538 | 30 | 250 | 0.0 | 6.4 | 0.00 | 0.00 | 0.00 | 44 | 1007.6 |
| 20260905170036 | 30 | 267 | 3.2 | 8.0 | 0.00 | 0.00 | 0.00 | 46 | 1007.8 |
| 20260905164533 | 30 | 270 | 0.0 | 3.2 | 0.00 | 0.00 | 0.00 | 48 | 1007.8 |
| 20260905163029 | 28 | 323 | 3.2 | 4.8 | 0.00 | 0.00 | 0.00 | 50 | 1007.8 |
| 20260905161527 | 28 | 278 | 0.0 | 3.2 | 0.00 | 0.00 | 0.00 | 52 | 1007.8 |
| 20260905160025 | 28 | 305 | 0.0 | 3.2 | 0.00 | 0.00 | 0.00 | 53 | 1007.8 |
| 20260905154523 | 27 | 319 | 1.6 | 4.8 | 0.00 | 0.00 | 0.00 | 55 | 1007.8 |
| 20260905153026 | 27 | 251 | 0.0 | 1.6 | 0.00 | 0.00 | 0.00 | 59 | 1007.9 |
| 20260905151515 | 26 | 310 | 0.0 | 1.6 | 0.00 | 0.00 | 0.00 | 61 | 1007.8 |
| 20260905150019 | 25 | 259 | 0.0 | 1.6 | 0.00 | 0.00 | 0.00 | 64 | 1007.8 |
| 20260905144515 | 25 | 342 | 0.0 | 0.0 | 0.00 | 0.00 | 0.00 | 68 | 1007.9 |
| 20260905143017 | 24 | 342 | 0.0 | 1.6 | 0.00 | 0.00 | 0.00 | 69 | 1007.9 |
| 20260905141513 | 23 | 24 | 0.0 | 0.0 | 0.00 | 0.00 | 0.00 | 70 | 1007.7 |
| 20260905140009 | 23 | 24 | 0.0 | 0.0 | 0.00 | 0.00 | 0.00 | 71 | 1007.6 |
| 20260905134516 | 23 | 24 | 0.0 | 0.0 | 0.00 | 0.00 | 0.00 | 73 | 1007.2 |
| 20260905133003 | 22 | 22 | 0.0 | 0.0 | 0.00 | 0.00 | 0.00 | 72 | 1006.9 |
| 20260905131502 | 22 | 22 | 0.0 | 0.0 | 0.00 | 0.00 | 0.00 | 73 | 1006.8 |
| 20260905130100 | 22 | 22 | 0.0 | 0.0 | 0.00 | 0.00 | 0.00 | 71 | 1006.6 |
| 20260905124559 | 23 | 22 | 0.0 | 0.0 | 0.00 | 0.00 | 0.00 | 71 | 1006.6 |
| 20260905123111 | 22 | 22 | 0.0 | 0.0 | 0.00 | 0.00 | 0.00 | 72 | 1006.4 |
| 20260905121558 | 22 | 22 | 0.0 | 1.6 | 0.00 | 0.00 | 0.00 | 72 | 1006.3 |
| 20260905120057 | 22 | 23 | 0.0 | 0.0 | 0.00 | 0.00 | 0.00 | 71 | 1006.3 |
| 20260905114558 | 22 | 69 | 0.0 | 0.0 | 0.00 | 0.00 | 0.00 | 73 | 1006.2 |
| 20260905113100 | 22 | 69 | 0.0 | 0.0 | 0.00 | 0.00 | 0.00 | 71 | 1006.2 |
| 20260905111559 | 22 | 76 | 0.0 | 0.0 | 0.00 | 0.00 | 0.00 | 73 | 1006.2 |
| 20260905110053 | 22 | 75 | 0.0 | 0.0 | 0.00 | 0.00 | 0.00 | 73 | 1006.3 |
| 20260905104551 | 23 | 76 | 0.0 | 0.0 | 0.00 | 0.00 | 0.00 | 71 | 1006.2 |
| 20260905103057 | 23 | 75 | 0.0 | 0.0 | 0.00 | 0.00 | 0.00 | 70 | 1006.2 |
| 20260905101547 | 23 | 76 | 0.0 | 0.0 | 0.00 | 0.00 | 0.00 | 69 | 1006.3 |
| 20260905100055 | 24 | 75 | 0.0 | 0.0 | 0.00 | 0.00 | 0.00 | 65 | 1006.3 |
| 20260905094545 | 23 | 72 | 0.0 | 0.0 | 0.00 | 0.00 | 0.00 | 66 | 1006.4 |
| 20260905093045 | 23 | 72 | 0.0 | 0.0 | 0.00 | 0.00 | 0.00 | 67 | 1006.3 |
| 20260905091551 | 24 | 72 | 0.0 | 0.0 | 0.00 | 0.00 | 0.00 | 65 | 1006.3 |
| 20260905090042 | 24 | 73 | 0.0 | 0.0 | 0.00 | 0.00 | 0.00 | 65 | 1006.4 |
| 20260905084541 | 24 | 12 | 0.0 | 0.0 | 0.00 | 0.00 | 0.00 | 65 | 1006.4 |
| 20260905083040 | 24 | 3 | 0.0 | 0.0 | 0.00 | 0.00 | 0.00 | 67 | 1006.5 |
| 20260905081538 | 24 | 3 | 0.0 | 0.0 | 0.00 | 0.00 | 0.00 | 67 | 1006.5 |
| 20260905080107 | 24 | 3 | 0.0 | 0.0 | 0.00 | 0.00 | 0.00 | 65 | 1006.6 |
| 20260905074537 | 24 | 3 | 0.0 | 0.0 | 0.00 | 0.00 | 0.00 | 67 | 1006.6 |
| 20260905073033 | 25 | 3 | 0.0 | 0.0 | 0.00 | 0.00 | 0.00 | 66 | 1006.6 |
| 20260905071531 | 25 | 3 | 0.0 | 0.0 | 0.00 | 0.00 | 0.00 | 62 | 1006.6 |
| 20260905070031 | 26 | 3 | 0.0 | 0.0 | 0.00 | 0.00 | 0.00 | 61 | 1006.5 |
| 20260905064525 | 25 | 353 | 0.0 | 0.0 | 0.00 | 0.00 | 0.00 | 62 | 1006.6 |
| 20260905063025 | 26 | 353 | 0.0 | 1.6 | 0.00 | 0.00 | 0.00 | 60 | 1006.5 |
| 20260905061526 | 26 | 353 | 0.0 | 1.6 | 0.00 | 0.00 | 0.00 | 61 | 1006.4 |
| 20260905060039 | 26 | 353 | 0.0 | 1.6 | 0.00 | 0.00 | 0.00 | 58 | 1006.5 |
| 20260905054523 | 27 | 103 | 0.0 | 3.2 | 0.00 | 0.00 | 0.00 | 55 | 1006.5 |
| 20260905053023 | 27 | 91 | 0.0 | 0.0 | 0.00 | 0.00 | 0.00 | 54 | 1006.2 |
| 20260905051525 | 27 | 91 | 0.0 | 1.6 | 0.00 | 0.00 | 0.00 | 53 | 1006.2 |
| 20260905050026 | 28 | 91 | 0.0 | 1.6 | 0.00 | 0.00 | 0.00 | 52 | 1006.1 |
| 20260905044523 | 28 | 92 | 0.0 | 4.8 | 0.00 | 0.00 | 0.00 | 45 | 1006.0 |
| 20260905043021 | 28 | 101 | 3.2 | 8.0 | 0.00 | 0.00 | 0.00 | 40 | 1006.1 |
| 20260905041521 | 28 | 113 | 0.0 | 1.6 | 0.00 | 0.00 | 0.00 | 44 | 1005.9 |
| 20260905040026 | 28 | 333 | 0.0 | 0.0 | 0.00 | 0.00 | 0.00 | 44 | 1005.9 |
| 20260905034519 | 29 | 333 | 0.0 | 1.6 | 0.00 | 0.00 | 0.00 | 40 | 1005.7 |
| 20260905033018 | 29 | 333 | 0.0 | 1.6 | 0.00 | 0.00 | 0.00 | 38 | 1005.5 |
| 20260905031532 | 29 | 319 | 1.6 | 1.6 | 0.00 | 0.00 | 0.00 | 39 | 1005.2 |